User: anonymous   Login
Location: Niedergestelen
(46.3129°N, 7.7822°E)
Time: 06:49:35
(UTC+00:00)
Language:

CSL-04 DEB - Orbit

View from above orbital plane
View from above orbital plane
View from above satellite
View from above satellite

Ground track
Ground track

The orbit data is extracted from the following two-line orbital elements,

1 26207U 99057CV  21171.41145774  .00000500  00000-0  12818-3 0  9990
2 26207  98.5259 220.1991 0105385 335.5141  36.3813 14.51720105117004
Epoch (UTC): 20 June 2021 09:52:29
Eccentricity: 0.0105385
inclination: 98.5259°
perigee height: 645 km
apogee height: 795 km
right ascension of ascending node: 220.1991°
argument of perigee: 335.5141°
revolutions per day: 14.51720105
mean anomaly at epoch: 36.3813°
orbit number at epoch: 11700

The dashed part of the orbit path shows where the satellite is in the earth's shadow,  

DLR